Year,Month,Day,Hour,Minute,Value (Times are PST for temperature in C)
2011,05,18,00,00,5.30
2011,05,18,00,01,5.30
2011,05,18,00,02,5.30
2011,05,18,00,03,5.30
2011,05,18,00,04,5.30
2011,05,18,00,05,5.30
2011,05,18,00,06,5.30
2011,05,18,00,07,5.30
2011,05,18,00,08,5.30
2011,05,18,00,09,5.30
2011,05,18,00,10,5.20
2011,05,18,00,11,5.10
2011,05,18,00,12,5.10
2011,05,18,00,13,5.10
2011,05,18,00,14,5.00
2011,05,18,00,15,4.90
2011,05,18,00,16,4.90
2011,05,18,00,17,4.90
2011,05,18,00,18,4.90
2011,05,18,00,19,4.90
2011,05,18,00,20,4.80
2011,05,18,00,21,4.80
2011,05,18,00,22,4.80
2011,05,18,00,23,4.80
2011,05,18,00,24,4.80
2011,05,18,00,25,4.90
2011,05,18,00,26,4.90
2011,05,18,00,27,4.90
2011,05,18,00,28,4.90
2011,05,18,00,29,4.90
2011,05,18,00,30,4.90
2011,05,18,00,31,4.90
2011,05,18,00,32,4.90
2011,05,18,00,33,4.90
2011,05,18,00,34,4.90
2011,05,18,00,35,4.90
2011,05,18,00,36,4.90
2011,05,18,00,37,4.90
2011,05,18,00,38,4.90
2011,05,18,00,39,4.90
2011,05,18,00,40,4.90
2011,05,18,00,41,4.90
2011,05,18,00,42,4.90
2011,05,18,00,43,4.90
2011,05,18,00,44,4.90
2011,05,18,00,45,4.90
2011,05,18,00,46,5.10
2011,05,18,00,47,5.10
2011,05,18,00,48,5.10
2011,05,18,00,49,5.10
2011,05,18,00,50,5.10
2011,05,18,00,51,5.10
2011,05,18,00,52,5.10
2011,05,18,00,53,5.10
2011,05,18,00,54,5.00
2011,05,18,00,55,4.90
2011,05,18,00,56,4.90
2011,05,18,00,57,4.90
2011,05,18,00,58,4.90
2011,05,18,00,59,4.90
2011,05,18,01,00,4.90
2011,05,18,01,01,4.90
2011,05,18,01,02,4.90
2011,05,18,01,03,4.90
2011,05,18,01,04,4.90
2011,05,18,01,05,4.90
2011,05,18,01,06,4.90
2011,05,18,01,07,4.90
2011,05,18,01,08,4.90
2011,05,18,01,09,4.90
2011,05,18,01,10,4.80
2011,05,18,01,11,4.80
2011,05,18,01,12,4.80
2011,05,18,01,13,4.80
2011,05,18,01,14,4.80
2011,05,18,01,15,4.80
2011,05,18,01,16,4.80
2011,05,18,01,17,4.70
2011,05,18,01,18,4.70
2011,05,18,01,19,4.70
2011,05,18,01,20,4.70
2011,05,18,01,21,4.70
2011,05,18,01,22,4.70
2011,05,18,01,23,4.70
2011,05,18,01,24,4.70
2011,05,18,01,25,4.70
2011,05,18,01,26,4.70
2011,05,18,01,27,4.70
2011,05,18,01,28,4.70
2011,05,18,01,29,4.70
2011,05,18,01,30,4.70
2011,05,18,01,31,4.70
2011,05,18,01,32,4.70
2011,05,18,01,33,4.60
2011,05,18,01,34,4.60
2011,05,18,01,35,4.60
2011,05,18,01,36,4.60
2011,05,18,01,37,4.60
2011,05,18,01,38,4.60
2011,05,18,01,39,4.60
2011,05,18,01,40,4.60
2011,05,18,01,41,4.60
2011,05,18,01,42,4.60
2011,05,18,01,43,4.60
2011,05,18,01,44,4.60
2011,05,18,01,45,4.60
2011,05,18,01,46,4.60
2011,05,18,01,47,4.60
2011,05,18,01,48,4.60
2011,05,18,01,49,4.60
2011,05,18,01,50,4.60
2011,05,18,01,51,4.50
2011,05,18,01,52,4.50
2011,05,18,01,53,4.50
2011,05,18,01,54,4.50
2011,05,18,01,55,4.50
2011,05,18,01,56,4.50
2011,05,18,01,57,4.40
2011,05,18,01,58,4.40
2011,05,18,01,59,4.40
2011,05,18,02,00,4.40
2011,05,18,02,01,4.40
2011,05,18,02,02,4.40
2011,05,18,02,03,4.30
2011,05,18,02,04,4.30
2011,05,18,02,05,4.30
2011,05,18,02,06,4.30
2011,05,18,02,07,4.30
2011,05,18,02,08,4.40
2011,05,18,02,09,4.40
2011,05,18,02,10,4.40
2011,05,18,02,11,4.40
2011,05,18,02,12,4.40
2011,05,18,02,13,4.30
2011,05,18,02,14,4.30
2011,05,18,02,15,4.20
2011,05,18,02,16,4.20
2011,05,18,02,17,4.20
2011,05,18,02,18,4.20
2011,05,18,02,19,4.20
2011,05,18,02,20,4.20
2011,05,18,02,21,4.20
2011,05,18,02,22,4.20
2011,05,18,02,23,4.20
2011,05,18,02,24,4.20
2011,05,18,02,25,4.20
2011,05,18,02,26,4.20
2011,05,18,02,27,4.20
2011,05,18,02,28,4.20
2011,05,18,02,29,4.20
2011,05,18,02,30,4.20
2011,05,18,02,31,4.20
2011,05,18,02,32,4.20
2011,05,18,02,33,4.20
2011,05,18,02,34,4.20
2011,05,18,02,35,4.20
2011,05,18,02,36,4.20
2011,05,18,02,37,4.20
2011,05,18,02,38,4.20
2011,05,18,02,39,4.20
2011,05,18,02,40,4.20
2011,05,18,02,41,4.20
2011,05,18,02,42,4.20
2011,05,18,02,43,4.20
2011,05,18,02,44,4.20
2011,05,18,02,45,4.20
2011,05,18,02,46,4.20
2011,05,18,02,47,4.20
2011,05,18,02,48,4.20
2011,05,18,02,49,4.20
2011,05,18,02,50,4.20
2011,05,18,02,51,4.20
2011,05,18,02,52,4.20
2011,05,18,02,53,4.20
2011,05,18,02,54,4.20
2011,05,18,02,55,4.20
2011,05,18,02,56,4.20
2011,05,18,02,57,4.20
2011,05,18,02,58,4.20
2011,05,18,02,59,4.20
2011,05,18,03,00,4.20
2011,05,18,03,01,4.20
2011,05,18,03,02,4.20
2011,05,18,03,03,4.20
2011,05,18,03,04,4.20
2011,05,18,03,05,4.20
2011,05,18,03,06,4.20
2011,05,18,03,07,4.20
2011,05,18,03,08,4.20
2011,05,18,03,09,4.20
2011,05,18,03,10,4.20
2011,05,18,03,11,4.20
2011,05,18,03,12,4.20
2011,05,18,03,13,4.20
2011,05,18,03,14,4.20
2011,05,18,03,15,4.20
2011,05,18,03,16,4.20
2011,05,18,03,17,4.20
2011,05,18,03,18,4.20
2011,05,18,03,19,4.20
2011,05,18,03,20,4.20
2011,05,18,03,21,4.20
2011,05,18,03,22,4.20
2011,05,18,03,23,4.20
2011,05,18,03,24,4.20
2011,05,18,03,25,4.20
2011,05,18,03,26,4.20
2011,05,18,03,27,4.10
2011,05,18,03,28,4.10
2011,05,18,03,29,4.10
2011,05,18,03,30,4.10
2011,05,18,03,31,4.00
2011,05,18,03,32,4.00
2011,05,18,03,33,4.00
2011,05,18,03,34,4.00
2011,05,18,03,35,4.00
2011,05,18,03,36,4.00
2011,05,18,03,37,4.00
2011,05,18,03,38,4.00
2011,05,18,03,39,4.00
2011,05,18,03,40,4.00
2011,05,18,03,41,4.00
2011,05,18,03,42,3.90
2011,05,18,03,43,3.90
2011,05,18,03,44,3.90
2011,05,18,03,45,3.90
2011,05,18,03,46,3.80
2011,05,18,03,47,3.80
2011,05,18,03,48,3.80
2011,05,18,03,49,3.80
2011,05,18,03,50,3.80
2011,05,18,03,51,3.80
2011,05,18,03,52,3.80
2011,05,18,03,53,3.80
2011,05,18,03,54,3.80
2011,05,18,03,55,3.80
2011,05,18,03,56,3.80
2011,05,18,03,57,3.80
2011,05,18,03,58,3.80
2011,05,18,03,59,3.80
2011,05,18,04,00,3.80
2011,05,18,04,01,3.80
2011,05,18,04,02,3.80
2011,05,18,04,03,3.80
2011,05,18,04,04,3.80
2011,05,18,04,05,3.80
2011,05,18,04,06,3.80
2011,05,18,04,07,3.80
2011,05,18,04,08,3.80
2011,05,18,04,09,3.80
2011,05,18,04,10,3.80
2011,05,18,04,11,3.80
2011,05,18,04,12,3.80
2011,05,18,04,13,3.70
2011,05,18,04,14,3.60
2011,05,18,04,15,3.60
2011,05,18,04,16,3.60
2011,05,18,04,17,3.50
2011,05,18,04,18,3.50
2011,05,18,04,19,3.50
2011,05,18,04,20,3.50
2011,05,18,04,21,3.50
2011,05,18,04,22,3.50
2011,05,18,04,23,3.40
2011,05,18,04,24,3.40
2011,05,18,04,25,3.40
2011,05,18,04,26,3.40
2011,05,18,04,27,3.30
2011,05,18,04,28,3.30
2011,05,18,04,29,3.30
2011,05,18,04,30,3.30
2011,05,18,04,31,3.30
2011,05,18,04,32,3.30
2011,05,18,04,33,3.30
2011,05,18,04,34,3.30
2011,05,18,04,35,3.40
2011,05,18,04,36,3.40
2011,05,18,04,37,3.40
2011,05,18,04,38,3.40
2011,05,18,04,39,3.40
2011,05,18,04,40,3.40
2011,05,18,04,41,3.40
2011,05,18,04,42,3.40
2011,05,18,04,43,3.40
2011,05,18,04,44,3.40
2011,05,18,04,45,3.40
2011,05,18,04,46,3.40
2011,05,18,04,47,3.40
2011,05,18,04,48,3.40
2011,05,18,04,49,3.40
2011,05,18,04,50,3.40
2011,05,18,04,51,3.40
2011,05,18,04,52,3.40
2011,05,18,04,53,3.40
2011,05,18,04,54,3.40
2011,05,18,04,55,3.40
2011,05,18,04,56,3.40
2011,05,18,04,57,3.40
2011,05,18,04,58,3.40
2011,05,18,04,59,3.30
2011,05,18,05,00,3.30
2011,05,18,05,01,3.30
2011,05,18,05,02,3.30
2011,05,18,05,03,3.30
2011,05,18,05,04,3.30
2011,05,18,05,05,3.30
2011,05,18,05,06,3.30
2011,05,18,05,07,3.30
2011,05,18,05,08,3.30
2011,05,18,05,09,3.30
2011,05,18,05,10,3.30
2011,05,18,05,11,3.30
2011,05,18,05,12,3.30
2011,05,18,05,13,3.30
2011,05,18,05,14,3.30
2011,05,18,05,15,3.30
2011,05,18,05,16,3.30
2011,05,18,05,17,3.30
2011,05,18,05,18,3.30
2011,05,18,05,19,3.30
2011,05,18,05,20,3.30
2011,05,18,05,21,3.30
2011,05,18,05,22,3.30
2011,05,18,05,23,3.30
2011,05,18,05,24,3.30
2011,05,18,05,25,3.30
2011,05,18,05,26,3.30
2011,05,18,05,27,3.30
2011,05,18,05,28,3.30
2011,05,18,05,29,3.30
2011,05,18,05,30,3.30
2011,05,18,05,31,3.40
2011,05,18,05,32,3.40
2011,05,18,05,33,3.40
2011,05,18,05,34,3.40
2011,05,18,05,35,3.40
2011,05,18,05,36,3.40
2011,05,18,05,37,3.50
2011,05,18,05,38,3.50
2011,05,18,05,39,3.50
2011,05,18,05,40,3.50
2011,05,18,05,41,3.50
2011,05,18,05,42,3.40
2011,05,18,05,43,3.40
2011,05,18,05,44,3.30
2011,05,18,05,45,3.30
2011,05,18,05,46,3.30
2011,05,18,05,47,3.30
2011,05,18,05,48,3.30
2011,05,18,05,49,3.30
2011,05,18,05,50,3.30
2011,05,18,05,51,3.30
2011,05,18,05,52,3.20
2011,05,18,05,53,3.20
2011,05,18,05,54,3.20
2011,05,18,05,55,3.20
2011,05,18,05,56,3.20
2011,05,18,05,57,3.20
2011,05,18,05,58,3.10
2011,05,18,05,59,3.10
2011,05,18,06,00,3.10
2011,05,18,06,01,3.10
2011,05,18,06,02,3.10
2011,05,18,06,03,3.10
2011,05,18,06,04,3.10
2011,05,18,06,05,3.20
2011,05,18,06,06,3.20
2011,05,18,06,07,3.30
2011,05,18,06,08,3.30
2011,05,18,06,09,3.40
2011,05,18,06,10,3.50
2011,05,18,06,11,3.60
2011,05,18,06,12,3.70
2011,05,18,06,13,3.70
2011,05,18,06,14,3.80
2011,05,18,06,15,3.80
2011,05,18,06,16,3.90
2011,05,18,06,17,4.00
2011,05,18,06,18,4.00
2011,05,18,06,19,4.10
2011,05,18,06,20,4.20
2011,05,18,06,21,4.20
2011,05,18,06,22,4.20
2011,05,18,06,23,4.30
2011,05,18,06,24,4.30
2011,05,18,06,25,4.30
2011,05,18,06,26,4.40
2011,05,18,06,27,4.40
2011,05,18,06,28,4.40
2011,05,18,06,29,4.40
2011,05,18,06,30,4.50
2011,05,18,06,31,4.50
2011,05,18,06,32,4.60
2011,05,18,06,33,4.60
2011,05,18,06,34,4.70
2011,05,18,06,35,4.70
2011,05,18,06,36,4.80
2011,05,18,06,37,4.80
2011,05,18,06,38,4.90
2011,05,18,06,39,4.90
2011,05,18,06,40,4.90
2011,05,18,06,41,5.00
2011,05,18,06,42,5.10
2011,05,18,06,43,5.10
2011,05,18,06,44,5.10
2011,05,18,06,45,5.10
2011,05,18,06,46,5.20
2011,05,18,06,47,5.20
2011,05,18,06,48,5.30
2011,05,18,06,49,5.30
2011,05,18,06,50,5.30
2011,05,18,06,51,5.30
2011,05,18,06,52,5.40
2011,05,18,06,53,5.40
2011,05,18,06,54,5.40
2011,05,18,06,55,5.50
2011,05,18,06,56,5.60
2011,05,18,06,57,5.60
2011,05,18,06,58,5.70
2011,05,18,06,59,5.70
2011,05,18,07,00,5.80
2011,05,18,07,01,5.90
2011,05,18,07,02,5.90
2011,05,18,07,03,6.00
2011,05,18,07,04,6.00
2011,05,18,07,05,6.10
2011,05,18,07,06,6.20
2011,05,18,07,07,6.30
2011,05,18,07,08,6.30
2011,05,18,07,09,6.30
2011,05,18,07,10,6.40
2011,05,18,07,11,6.40
2011,05,18,07,12,6.50
2011,05,18,07,13,6.60
2011,05,18,07,14,6.70
2011,05,18,07,15,6.80
2011,05,18,07,16,6.80
2011,05,18,07,17,6.80
2011,05,18,07,18,6.80
2011,05,18,07,19,6.90
2011,05,18,07,20,6.90
2011,05,18,07,21,6.90
2011,05,18,07,22,7.00
2011,05,18,07,23,7.10
2011,05,18,07,24,7.20
2011,05,18,07,25,7.30
2011,05,18,07,26,7.30
2011,05,18,07,27,7.40
2011,05,18,07,28,7.50
2011,05,18,07,29,7.60
2011,05,18,07,30,7.80
2011,05,18,07,31,7.80
2011,05,18,07,32,7.90
2011,05,18,07,33,8.00
2011,05,18,07,34,8.20
2011,05,18,07,35,8.30
2011,05,18,07,36,8.40
2011,05,18,07,37,8.50
2011,05,18,07,38,8.60
2011,05,18,07,39,8.60
2011,05,18,07,40,8.70
2011,05,18,07,41,8.70
2011,05,18,07,42,8.60
2011,05,18,07,43,8.60
2011,05,18,07,44,8.60
2011,05,18,07,45,8.60
2011,05,18,07,46,8.60
2011,05,18,07,47,8.70
2011,05,18,07,48,8.80
2011,05,18,07,49,8.90
2011,05,18,07,50,9.00
2011,05,18,07,51,9.10
2011,05,18,07,52,9.20
2011,05,18,07,53,9.30
2011,05,18,07,54,9.40
2011,05,18,07,55,9.50
2011,05,18,07,56,9.60
2011,05,18,07,57,9.70
2011,05,18,07,58,9.70
2011,05,18,07,59,9.80
2011,05,18,08,00,9.90
2011,05,18,08,01,10.00
2011,05,18,08,02,10.10
2011,05,18,08,03,10.20
2011,05,18,08,04,10.20
2011,05,18,08,05,10.30
2011,05,18,08,06,10.20
2011,05,18,08,07,10.30
2011,05,18,08,08,10.30
2011,05,18,08,09,10.40
2011,05,18,08,10,10.40
2011,05,18,08,11,10.40
2011,05,18,08,12,10.40
2011,05,18,08,13,10.40
2011,05,18,08,14,10.60
2011,05,18,08,15,10.60
2011,05,18,08,16,10.70
2011,05,18,08,17,10.80
2011,05,18,08,18,10.80
2011,05,18,08,19,10.80
2011,05,18,08,20,10.80
2011,05,18,08,21,10.90
2011,05,18,08,22,10.90
2011,05,18,08,23,10.90
2011,05,18,08,24,10.90
2011,05,18,08,25,10.90
2011,05,18,08,26,11.00
2011,05,18,08,27,11.10
2011,05,18,08,28,11.10
2011,05,18,08,29,11.10
2011,05,18,08,30,11.20
2011,05,18,08,31,11.20
2011,05,18,08,32,11.30
2011,05,18,08,33,11.40
2011,05,18,08,34,11.40
2011,05,18,08,35,11.40
2011,05,18,08,36,11.40
2011,05,18,08,37,11.40
2011,05,18,08,38,11.40
2011,05,18,08,39,11.50
2011,05,18,08,40,11.60
2011,05,18,08,41,11.60
2011,05,18,08,42,11.60
2011,05,18,08,43,11.70
2011,05,18,08,44,11.90
2011,05,18,08,45,12.00
2011,05,18,08,46,12.10
2011,05,18,08,47,12.10
2011,05,18,08,48,12.20
2011,05,18,08,49,12.30
2011,05,18,08,50,12.40
2011,05,18,08,51,12.50
2011,05,18,08,52,12.50
2011,05,18,08,53,12.60
2011,05,18,08,54,12.70
2011,05,18,08,55,12.80
2011,05,18,08,56,12.80
2011,05,18,08,57,12.80
2011,05,18,08,58,12.80
2011,05,18,08,59,12.80
2011,05,18,09,00,12.80
2011,05,18,09,01,12.90
2011,05,18,09,02,12.90
2011,05,18,09,03,12.80
2011,05,18,09,04,12.60
2011,05,18,09,05,12.30
2011,05,18,09,06,12.10
2011,05,18,09,07,11.90
2011,05,18,09,08,11.80
2011,05,18,09,09,11.70
2011,05,18,09,10,11.70
2011,05,18,09,11,11.70
2011,05,18,09,12,11.70
2011,05,18,09,13,11.70
2011,05,18,09,14,11.70
2011,05,18,09,15,11.60
2011,05,18,09,16,11.60
2011,05,18,09,17,11.60
2011,05,18,09,18,11.60
2011,05,18,09,19,11.50
2011,05,18,09,20,11.40
2011,05,18,09,21,11.30
2011,05,18,09,22,11.20
2011,05,18,09,23,11.10
2011,05,18,09,24,11.10
2011,05,18,09,25,11.10
2011,05,18,09,26,11.10
2011,05,18,09,27,11.00
2011,05,18,09,28,10.90
2011,05,18,09,29,10.90
2011,05,18,09,30,10.90
2011,05,18,09,31,10.90
2011,05,18,09,32,10.80
2011,05,18,09,33,10.90
2011,05,18,09,34,10.90
2011,05,18,09,35,10.90
2011,05,18,09,36,10.90
2011,05,18,09,37,10.80
2011,05,18,09,38,10.80
2011,05,18,09,39,10.80
2011,05,18,09,40,10.80
2011,05,18,09,41,10.80
2011,05,18,09,42,10.80
2011,05,18,09,43,10.90
2011,05,18,09,44,10.90
2011,05,18,09,45,11.00
2011,05,18,09,46,11.10
2011,05,18,09,47,11.10
2011,05,18,09,48,11.10
2011,05,18,09,49,11.10
2011,05,18,09,50,11.20
2011,05,18,09,51,11.20
2011,05,18,09,52,11.20
2011,05,18,09,53,11.30
2011,05,18,09,54,11.30
2011,05,18,09,55,11.40
2011,05,18,09,56,11.40
2011,05,18,09,57,11.30
2011,05,18,09,58,11.40
2011,05,18,09,59,11.40
2011,05,18,10,00,11.40
2011,05,18,10,01,11.40
2011,05,18,10,02,11.50
2011,05,18,10,03,11.60
2011,05,18,10,04,11.60
2011,05,18,10,05,11.70
2011,05,18,10,06,11.80
2011,05,18,10,07,12.00
2011,05,18,10,08,12.00
2011,05,18,10,09,12.00
2011,05,18,10,10,12.00
2011,05,18,10,11,12.00
2011,05,18,10,12,12.10
2011,05,18,10,13,12.00
2011,05,18,10,14,11.90
2011,05,18,10,15,11.80
2011,05,18,10,16,11.80
2011,05,18,10,17,11.80
2011,05,18,10,18,11.80
2011,05,18,10,19,11.90
2011,05,18,10,20,11.80
2011,05,18,10,21,11.80
2011,05,18,10,22,11.80
2011,05,18,10,23,11.80
2011,05,18,10,24,11.70
2011,05,18,10,25,11.80
2011,05,18,10,26,11.80
2011,05,18,10,27,11.80
2011,05,18,10,28,11.80
2011,05,18,10,29,11.70
2011,05,18,10,30,11.70
2011,05,18,10,31,11.70
2011,05,18,10,32,11.80
2011,05,18,10,33,11.70
2011,05,18,10,34,11.70
2011,05,18,10,35,11.80
2011,05,18,10,36,11.80
2011,05,18,10,37,11.80
2011,05,18,10,38,11.80
2011,05,18,10,39,11.80
2011,05,18,10,40,11.80
2011,05,18,10,41,11.80
2011,05,18,10,42,11.80
2011,05,18,10,43,11.80
2011,05,18,10,44,11.80
2011,05,18,10,45,11.80
2011,05,18,10,46,11.80
2011,05,18,10,47,11.70
2011,05,18,10,48,11.70
2011,05,18,10,49,11.70
2011,05,18,10,50,11.60
2011,05,18,10,51,11.60
2011,05,18,10,52,11.60
2011,05,18,10,53,11.60
2011,05,18,10,54,11.60
2011,05,18,10,55,11.60
2011,05,18,10,56,11.60
2011,05,18,10,57,11.60
2011,05,18,10,58,11.60
2011,05,18,10,59,11.70
2011,05,18,11,00,11.70
2011,05,18,11,01,11.70
2011,05,18,11,02,11.70
2011,05,18,11,03,11.70
2011,05,18,11,04,11.80
2011,05,18,11,05,11.70
2011,05,18,11,06,11.70
2011,05,18,11,07,11.60
2011,05,18,11,08,11.70
2011,05,18,11,09,11.70
2011,05,18,11,10,11.70
2011,05,18,11,11,11.70
2011,05,18,11,12,11.70
2011,05,18,11,13,11.70
2011,05,18,11,14,11.70
2011,05,18,11,15,11.70
2011,05,18,11,16,11.70
2011,05,18,11,17,11.70
2011,05,18,11,18,11.70
2011,05,18,11,19,11.70
2011,05,18,11,20,11.80
2011,05,18,11,21,11.90
2011,05,18,11,22,11.80
2011,05,18,11,23,11.80
2011,05,18,11,24,11.80
2011,05,18,11,25,11.90
2011,05,18,11,26,11.90
2011,05,18,11,27,11.90
2011,05,18,11,28,12.00
2011,05,18,11,29,12.00
2011,05,18,11,30,12.00
2011,05,18,11,31,12.00
2011,05,18,11,32,12.00
2011,05,18,11,33,12.00
2011,05,18,11,34,12.00
2011,05,18,11,35,11.90
2011,05,18,11,36,11.80
2011,05,18,11,37,11.80
2011,05,18,11,38,11.80
2011,05,18,11,39,11.80
2011,05,18,11,40,11.80
2011,05,18,11,41,11.80
2011,05,18,11,42,11.80
2011,05,18,11,43,11.80
2011,05,18,11,44,12.00
2011,05,18,11,45,12.10
2011,05,18,11,46,12.10
2011,05,18,11,47,12.10
2011,05,18,11,48,12.20
2011,05,18,11,49,12.20
2011,05,18,11,50,12.30
2011,05,18,11,51,12.40
2011,05,18,11,52,12.40
2011,05,18,11,53,12.40
2011,05,18,11,54,12.40
2011,05,18,11,55,12.40
2011,05,18,11,56,12.60
2011,05,18,11,57,12.60
2011,05,18,11,58,12.80
2011,05,18,11,59,12.80
2011,05,18,12,00,12.80
2011,05,18,12,01,12.90
2011,05,18,12,02,12.90
2011,05,18,12,03,12.90
2011,05,18,12,04,13.00
2011,05,18,12,05,13.10
2011,05,18,12,06,13.10
2011,05,18,12,07,13.20
2011,05,18,12,08,13.30
2011,05,18,12,09,13.30
2011,05,18,12,10,13.30
2011,05,18,12,11,13.20
2011,05,18,12,12,13.10
2011,05,18,12,13,13.00
2011,05,18,12,14,13.00
2011,05,18,12,15,13.10
2011,05,18,12,16,13.30
2011,05,18,12,17,13.40
2011,05,18,12,18,13.50
2011,05,18,12,19,13.60
2011,05,18,12,20,13.70
2011,05,18,12,21,13.80
2011,05,18,12,22,14.00
2011,05,18,12,23,14.20
2011,05,18,12,24,14.10
2011,05,18,12,25,14.00
2011,05,18,12,26,14.00
2011,05,18,12,27,13.90
2011,05,18,12,28,14.00
2011,05,18,12,29,14.00
2011,05,18,12,30,14.00
2011,05,18,12,31,13.90
2011,05,18,12,32,13.80
2011,05,18,12,33,13.70
2011,05,18,12,34,13.70
2011,05,18,12,35,13.70
2011,05,18,12,36,13.70
2011,05,18,12,37,13.70
2011,05,18,12,38,13.70
2011,05,18,12,39,13.70
2011,05,18,12,40,13.70
2011,05,18,12,41,13.70
2011,05,18,12,42,13.60
2011,05,18,12,43,13.50
2011,05,18,12,44,13.60
2011,05,18,12,45,13.60
2011,05,18,12,46,13.60
2011,05,18,12,47,13.50
2011,05,18,12,48,13.40
2011,05,18,12,49,13.50
2011,05,18,12,50,13.60
2011,05,18,12,51,13.70
2011,05,18,12,52,13.80
2011,05,18,12,53,13.70
2011,05,18,12,54,13.70
2011,05,18,12,55,13.70
2011,05,18,12,56,13.90
2011,05,18,12,57,14.00
2011,05,18,12,58,14.00
2011,05,18,12,59,14.10
2011,05,18,13,00,14.20
2011,05,18,13,01,14.30
2011,05,18,13,02,14.30
2011,05,18,13,03,14.30
2011,05,18,13,04,14.20
2011,05,18,13,05,14.10
2011,05,18,13,06,14.10
2011,05,18,13,07,14.10
2011,05,18,13,08,14.00
2011,05,18,13,09,14.00
2011,05,18,13,10,14.00
2011,05,18,13,11,14.00
2011,05,18,13,12,14.00
2011,05,18,13,13,13.90
2011,05,18,13,14,14.00
2011,05,18,13,15,14.10
2011,05,18,13,16,14.10
2011,05,18,13,17,14.10
2011,05,18,13,18,13.90
2011,05,18,13,19,13.90
2011,05,18,13,20,13.80
2011,05,18,13,21,13.60
2011,05,18,13,22,13.50
2011,05,18,13,23,13.40
2011,05,18,13,24,13.30
2011,05,18,13,25,13.30
2011,05,18,13,26,13.20
2011,05,18,13,27,13.20
2011,05,18,13,28,13.10
2011,05,18,13,29,13.10
2011,05,18,13,30,13.10
2011,05,18,13,31,13.10
2011,05,18,13,32,13.00
2011,05,18,13,33,13.10
2011,05,18,13,34,13.20
2011,05,18,13,35,13.20
2011,05,18,13,36,13.10
2011,05,18,13,37,13.00
2011,05,18,13,38,13.00
2011,05,18,13,39,13.10
2011,05,18,13,40,13.00
2011,05,18,13,41,13.00
2011,05,18,13,42,12.90
2011,05,18,13,43,12.90
2011,05,18,13,44,12.80
2011,05,18,13,45,12.80
2011,05,18,13,46,12.80
2011,05,18,13,47,12.80
2011,05,18,13,48,12.80
2011,05,18,13,49,12.80
2011,05,18,13,50,12.80
2011,05,18,13,51,12.80
2011,05,18,13,52,12.90
2011,05,18,13,53,13.00
2011,05,18,13,54,13.10
2011,05,18,13,55,13.20
2011,05,18,13,56,13.20
2011,05,18,13,57,13.20
2011,05,18,13,58,13.20
2011,05,18,13,59,13.30
2011,05,18,14,00,13.40
2011,05,18,14,01,13.50
2011,05,18,14,02,13.50
2011,05,18,14,03,13.50
2011,05,18,14,04,13.50
2011,05,18,14,05,13.50
2011,05,18,14,06,13.60
2011,05,18,14,07,13.70
2011,05,18,14,08,13.70
2011,05,18,14,09,13.70
2011,05,18,14,10,13.70
2011,05,18,14,11,13.70
2011,05,18,14,12,13.70
2011,05,18,14,13,13.70
2011,05,18,14,14,13.70
2011,05,18,14,15,13.70
2011,05,18,14,16,13.70
2011,05,18,14,17,13.60
2011,05,18,14,18,13.60
2011,05,18,14,19,13.60
2011,05,18,14,20,13.50
2011,05,18,14,21,13.50
2011,05,18,14,22,13.70
2011,05,18,14,23,13.70
2011,05,18,14,24,13.80
2011,05,18,14,25,13.90
2011,05,18,14,26,13.90
2011,05,18,14,27,14.00
2011,05,18,14,28,14.00
2011,05,18,14,29,13.90
2011,05,18,14,30,13.80
2011,05,18,14,31,13.70
2011,05,18,14,32,13.70
2011,05,18,14,33,13.70
2011,05,18,14,34,13.60
2011,05,18,14,35,13.60
2011,05,18,14,36,13.60
2011,05,18,14,37,13.70
2011,05,18,14,38,13.80
2011,05,18,14,39,13.90
2011,05,18,14,40,14.10
2011,05,18,14,41,14.20
2011,05,18,14,42,14.20
2011,05,18,14,43,14.10
2011,05,18,14,44,14.00
2011,05,18,14,45,14.00
2011,05,18,14,46,14.00
2011,05,18,14,47,13.90
2011,05,18,14,48,13.90
2011,05,18,14,49,13.80
2011,05,18,14,50,13.80
2011,05,18,14,51,13.70
2011,05,18,14,52,13.70
2011,05,18,14,53,13.70
2011,05,18,14,54,13.70
2011,05,18,14,55,13.80
2011,05,18,14,56,13.90
2011,05,18,14,57,13.90
2011,05,18,14,58,13.90
2011,05,18,14,59,13.90
2011,05,18,15,00,13.90
2011,05,18,15,01,13.80
2011,05,18,15,02,13.90
2011,05,18,15,03,13.90
2011,05,18,15,04,13.80
2011,05,18,15,05,13.70
2011,05,18,15,06,13.90
2011,05,18,15,07,14.00
2011,05,18,15,08,14.10
2011,05,18,15,09,14.00
2011,05,18,15,10,13.90
2011,05,18,15,11,13.70
2011,05,18,15,12,13.60
2011,05,18,15,13,13.50
2011,05,18,15,14,13.60
2011,05,18,15,15,13.60
2011,05,18,15,16,13.50
2011,05,18,15,17,13.50
2011,05,18,15,18,13.40
2011,05,18,15,19,13.30
2011,05,18,15,20,13.30
2011,05,18,15,21,13.00
2011,05,18,15,22,12.80
2011,05,18,15,23,12.70
2011,05,18,15,24,12.60
2011,05,18,15,25,12.50
2011,05,18,15,26,12.60
2011,05,18,15,27,12.60
2011,05,18,15,28,12.50
2011,05,18,15,29,12.50
2011,05,18,15,30,12.40
2011,05,18,15,31,12.30
2011,05,18,15,32,12.30
2011,05,18,15,33,12.30
2011,05,18,15,34,12.40
2011,05,18,15,35,12.60
2011,05,18,15,36,12.60
2011,05,18,15,37,12.50
2011,05,18,15,38,12.60
2011,05,18,15,39,12.60
2011,05,18,15,40,12.70
2011,05,18,15,41,12.70
2011,05,18,15,42,12.70
2011,05,18,15,43,12.70
2011,05,18,15,44,12.80
2011,05,18,15,45,12.80
2011,05,18,15,46,12.80
2011,05,18,15,47,12.80
2011,05,18,15,48,12.80
2011,05,18,15,49,12.80
2011,05,18,15,50,12.80
2011,05,18,15,51,12.90
2011,05,18,15,52,12.80
2011,05,18,15,53,12.80
2011,05,18,15,54,12.70
2011,05,18,15,55,12.70
2011,05,18,15,56,12.80
2011,05,18,15,57,12.70
2011,05,18,15,58,12.70
2011,05,18,15,59,12.80
2011,05,18,16,00,12.70
2011,05,18,16,01,12.80
2011,05,18,16,02,12.80
2011,05,18,16,03,12.80
2011,05,18,16,04,12.70
2011,05,18,16,05,12.80
2011,05,18,16,06,12.70
2011,05,18,16,07,12.70
2011,05,18,16,08,12.60
2011,05,18,16,09,12.60
2011,05,18,16,10,12.50
2011,05,18,16,11,12.50
2011,05,18,16,12,12.50
2011,05,18,16,13,12.50
2011,05,18,16,14,12.40
2011,05,18,16,15,12.50
2011,05,18,16,16,12.60
2011,05,18,16,17,12.60
2011,05,18,16,18,12.50
2011,05,18,16,19,12.50
2011,05,18,16,20,12.60
2011,05,18,16,21,12.60
2011,05,18,16,22,12.60
2011,05,18,16,23,12.60
2011,05,18,16,24,12.60
2011,05,18,16,25,12.50
2011,05,18,16,26,12.50
2011,05,18,16,27,12.50
2011,05,18,16,28,12.50
2011,05,18,16,29,12.50
2011,05,18,16,30,12.60
2011,05,18,16,31,12.50
2011,05,18,16,32,12.50
2011,05,18,16,33,12.50
2011,05,18,16,34,12.50
2011,05,18,16,35,12.40
2011,05,18,16,36,12.40
2011,05,18,16,37,12.40
2011,05,18,16,38,12.40
2011,05,18,16,39,12.40
2011,05,18,16,40,12.40
2011,05,18,16,41,12.40
2011,05,18,16,42,12.40
2011,05,18,16,43,12.50
2011,05,18,16,44,12.50
2011,05,18,16,45,12.50
2011,05,18,16,46,12.40
2011,05,18,16,47,12.30
2011,05,18,16,48,12.20
2011,05,18,16,49,12.10
2011,05,18,16,50,12.00
2011,05,18,16,51,12.00
2011,05,18,16,52,12.00
2011,05,18,16,53,12.00
2011,05,18,16,54,12.00
2011,05,18,16,55,12.00
2011,05,18,16,56,12.00
2011,05,18,16,57,12.00
2011,05,18,16,58,11.90
2011,05,18,16,59,11.80
2011,05,18,17,00,11.70
2011,05,18,17,01,11.60
2011,05,18,17,02,11.60
2011,05,18,17,03,11.60
2011,05,18,17,04,11.60
2011,05,18,17,05,11.60
2011,05,18,17,06,11.70
2011,05,18,17,07,11.60
2011,05,18,17,08,11.60
2011,05,18,17,09,11.50
2011,05,18,17,10,11.40
2011,05,18,17,11,11.40
2011,05,18,17,12,11.40
2011,05,18,17,13,11.40
2011,05,18,17,14,11.30
2011,05,18,17,15,11.30
2011,05,18,17,16,11.30
2011,05,18,17,17,11.30
2011,05,18,17,18,11.20
2011,05,18,17,19,11.20
2011,05,18,17,20,11.30
2011,05,18,17,21,11.30
2011,05,18,17,22,11.20
2011,05,18,17,23,11.10
2011,05,18,17,24,11.10
2011,05,18,17,25,11.10
2011,05,18,17,26,11.10
2011,05,18,17,27,11.10
2011,05,18,17,28,10.90
2011,05,18,17,29,10.90
2011,05,18,17,30,10.90
2011,05,18,17,31,10.90
2011,05,18,17,32,10.90
2011,05,18,17,33,10.90
2011,05,18,17,34,10.90
2011,05,18,17,35,11.00
2011,05,18,17,36,11.10
2011,05,18,17,37,11.10
2011,05,18,17,38,11.10
2011,05,18,17,39,11.10
2011,05,18,17,40,11.10